Regional Weather Roundup
Issued by NWS

Home | Current Version | Previous Version | Text Only | Print | Product List | Glossary On
Versions: 1 2 3 4 5 6 7 8 9 10 11 12 13 14 15 16 17 18 19 20 21 22 23 24 25 26 27 28 29 30 31 32 33 34 35 36 37 38 39 40 41 42 43 44 45 46 47 48 49 50
000
ASUS43 KFSD 042010
RWRSD

WEATHER ROUNDUP FOR SOUTH DAKOTA
NATIONAL WEATHER SERVICE SIOUX FALLS SD
300 PM CDT SAT JUL 04 2015

NOTE: "FAIR" INDICATES FEW OR NO CLOUDS BELOW 12,000 FEET WITH NO
SIGNIFICANT WEATHER AND/OR OBSTRUCTIONS TO VISIBILITY.


SDZ001>005-009-010-012>017-042100-
NORTHWEST AND NORTH CENTRAL SOUTH DAKOTA

CITY           SKY/WX    TMP DP  RH WIND       PRES   REMARKS
BUFFALO          N/A     91  56  30 W9        29.75F
FAITH            N/A     88  68  51 S15G22    29.79F
MOBRIDGE       MOSUNNY   88  69  53 S15       29.76F
$$

SDZ012>016-024>037-041>051-057-063-072>074-042100-
SOUTHWEST AND SOUTH CENTRAL SOUTH DAKOTA

CITY           SKY/WX    TMP DP  RH WIND       PRES   REMARKS
RAPID CTY ARPT   N/A     88  67  49 SE7       29.84S
PIERRE         SUNNY     89  68  49 SE16      29.77F
CUSTER         SUNNY     86  47  25 NW7G22    30.00S
ELLSWORTH AFB  SUNNY     88  62  41 NE6       29.84S
PHILIP         SUNNY     93  66  40 S14       29.77F HX  96
PINE RIDGE     SUNNY     89  66  46 SW15G23   29.85S
SPEARFISH      FAIR      84  63  48 N8        29.90S
WINNER         FAIR      92  60  34 S17       29.84S
$$

SDZ004>011-016>023-039-040-042100-
NORTHEAST SOUTH DAKOTA

CITY           SKY/WX    TMP DP  RH WIND       PRES   REMARKS
ABERDEEN       SUNNY     86  68  54 S13       29.82S
WATERTOWN      MOSUNNY   83  64  52 S16       29.88F
BROOKINGS      MOSUNNY   81  64  57 S14       29.92F
SISSETON         N/A     86  64  47 S13G18    29.84F
$$

SDZ017-020-022-023-036>040-048>070-042100-
SOUTHEAST SOUTH DAKOTA

CITY           SKY/WX    TMP DP  RH WIND       PRES   REMARKS
SIOUX FALLS    PTSUNNY   81  65  58 S12       29.92F
HURON          SUNNY     85  68  56 S15G24    29.84S
CHAMBERLAIN    SUNNY     84  69  60 SE15G22   29.84S
MITCHELL       MOSUNNY   84  66  54 SE20G25   29.87F
YANKTON        PTSUNNY   81  64  57 S15       29.90S
$$

ABBREVIATIONS USED IN REMARKS
   TC - TEMPERATURE IN CELSIUS
  WCI - WIND CHILL INDEX
   HX - HEAT INDEX
  VSB - VISIBILITY




USA.gov is the U.S. government's official web portal to all federal, state and local government web resources and services.